WD4DXQ Weather Reports


time (UTC)temp
F
wind
direction
speed
knots
gust
knots
rain 1hr
in
rain 24hr
in
rain mn
in
humidity
%
barometer
mb
20260509071740 55 202 0.0 0.0 0.00 0.00 0.00 93 1012.4
20260509071241 55 202 0.0 0.0 0.00 0.00 0.00 93 1012.3
20260509070729 55 202 0.0 0.0 0.00 0.00 0.00 93 1012.4
20260509070230 55 202 0.0 0.0 0.00 0.00 0.00 93 1012.3
20260509065734 55 202 0.0 0.0 0.00 0.00 0.00 93 1012.3
20260509065219 55 202 0.0 0.0 0.00 0.00 0.00 93 1012.4
20260509064707 55 202 0.0 0.0 0.00 0.00 0.00 93 1012.5
20260509064156 55 202 0.0 0.0 0.00 0.00 0.00 93 1012.6
20260509063638 55 202 0.0 0.0 0.00 0.00 0.00 93 1012.6
20260509063127 55 202 0.0 0.0 0.00 0.00 0.00 93 1012.6
20260509061328 55 202 0.0 0.0 0.00 0.00 0.00 93 1012.6
20260509060818 55 202 0.0 0.0 0.00 0.00 0.00 93 1012.6
20260509055704 54 202 0.0 0.0 0.00 0.00 0.00 93 1013.3
20260509055208 54 202 0.0 0.0 0.00 0.00 0.00 92 1013.4
20260509054652 54 202 0.0 0.0 0.00 0.00 0.00 92 1013.6
20260509054146 55 202 0.0 0.0 0.00 0.00 0.00 92 1013.7
20260509053631 55 202 0.0 0.0 0.00 0.00 0.00 92 1013.8
20260509053141 55 202 0.0 0.0 0.00 0.00 0.00 92 1013.8
20260509052651 55 202 0.0 0.0 0.00 0.00 0.00 92 1013.9
20260509052200 55 202 0.0 0.0 0.00 0.00 0.00 92 1014.0
20260509051702 55 202 0.0 0.0 0.00 0.00 0.00 92 1014.0
20260509050534 55 202 0.0 0.0 0.00 0.00 0.00 92 1013.7
20260509050040 55 202 0.0 0.0 0.00 0.00 0.00 92 1013.8
20260509044857 55 202 0.0 0.0 0.00 0.00 0.00 92 1013.6
20260509043719 56 202 0.0 0.0 0.00 0.00 0.00 92 1013.5
20260509042601 56 202 0.0 0.0 0.00 0.00 0.00 91 1013.7
20260509042047 56 202 0.0 0.0 0.00 0.00 0.00 92 1013.6
20260509041533 56 202 0.0 0.0 0.00 0.00 0.00 92 1013.7
20260509041016 56 202 0.0 0.0 0.00 0.00 0.00 92 1013.6
20260509040504 56 202 0.0 0.0 0.00 0.00 0.00 92 1013.6
20260509040013 56 202 0.0 0.0 0.00 0.00 0.00 92 1013.6
20260509035522 56 202 0.0 0.0 0.00 0.00 0.00 92 1013.7
20260509035020 56 202 0.0 0.0 0.00 0.00 0.00 92 1013.9
20260509034527 56 202 0.0 0.0 0.00 0.00 0.00 92 1014.0
20260509034024 56 202 0.0 0.0 0.00 0.00 0.00 91 1014.0
20260509033529 57 202 0.0 0.0 0.00 0.00 0.00 91 1014.1
20260509033036 57 202 0.0 0.0 0.00 0.00 0.00 91 1014.3
20260509032545 57 202 0.0 0.0 0.00 0.00 0.00 91 1014.5
20260509032041 57 202 0.0 0.0 0.00 0.00 0.00 91 1014.3
20260509031533 57 202 0.0 0.0 0.00 0.00 0.00 91 1014.4
20260509031021 57 202 0.0 0.0 0.00 0.00 0.00 90 1014.4
20260509030526 57 202 0.0 0.0 0.00 0.00 0.00 90 1014.5
20260509030015 57 202 0.0 0.0 0.00 0.00 0.00 91 1014.3
20260509025518 57 202 0.0 0.0 0.00 0.00 0.00 90 1014.3
20260509025027 58 202 0.0 0.0 0.00 0.00 0.00 90 1014.4
20260509023903 58 202 0.0 0.0 0.00 0.00 0.00 90 1014.3
20260509023408 58 202 0.0 0.0 0.00 0.00 0.00 90 1014.3
20260509022300 58 202 0.0 0.0 0.00 0.00 0.00 89 1014.4
20260509021142 58 202 0.0 0.0 0.00 0.00 0.00 89 1014.5
20260509020629 58 202 0.0 0.0 0.00 0.00 0.00 88 1014.5
20260509020132 59 202 0.0 0.0 0.00 0.00 0.00 88 1014.4
20260509015630 59 202 0.0 0.0 0.00 0.00 0.00 88 1014.4
20260509015121 59 202 0.0 0.0 0.00 0.00 0.00 88 1014.4
20260509014616 59 202 0.0 0.0 0.00 0.00 0.00 87 1014.4
20260509014116 59 202 0.0 0.0 0.00 0.00 0.00 87 1014.3
20260509013611 59 202 0.0 0.0 0.00 0.00 0.00 87 1014.1
20260509012433 60 202 0.0 0.0 0.00 0.00 0.00 87 1014.2
20260509011938 60 202 0.0 0.0 0.00 0.00 0.00 86 1014.2
20260509011420 60 202 0.0 0.0 0.00 0.00 0.00 86 1014.2
20260509010911 60 202 0.0 0.0 0.00 0.00 0.00 86 1014.2
20260509010406 60 202 0.0 0.0 0.00 0.00 0.00 85 1014.2
20260509005859 60 202 0.0 0.0 0.00 0.00 0.00 85 1014.4
20260509004714 61 202 0.0 0.0 0.00 0.00 0.00 84 1014.2
20260509004223 61 202 0.0 0.0 0.00 0.00 0.00 84 1014.2
20260509003104 61 202 0.0 0.0 0.00 0.00 0.00 83 1014.3
20260509002547 61 202 0.0 0.0 0.00 0.00 0.00 82 1014.2
20260509002038 61 202 0.0 0.0 0.00 0.00 0.00 83 1014.2
20260509000920 62 202 0.0 0.9 0.00 0.00 0.00 83 1014.3
20260508235808 63 202 0.0 0.0 0.00 0.00 0.00 81 1014.5
20260508235309 63 202 0.0 0.0 0.00 0.00 0.00 83 1014.3
20260508233536 63 202 0.0 0.0 0.00 0.00 0.00 84 1014.3
20260508233022 64 202 0.0 0.0 0.00 0.00 0.00 84 1014.1
20260508232515 64 202 0.0 0.0 0.00 0.00 0.00 84 1014.1
20260508230748 64 202 0.0 0.0 0.00 0.00 0.00 82 1014.1
20260508230255 64 202 0.0 0.0 0.00 0.00 0.00 81 1014.2
20260508225758 65 202 0.0 0.0 0.00 0.00 0.00 80 1014.1
20260508224632 65 202 0.0 0.0 0.00 0.00 0.00 80 1014.0
20260508222202 65 202 0.0 0.0 0.00 0.00 0.00 77 1014.1
20260508221654 65 202 0.0 0.0 0.00 0.00 0.00 77 1014.2
20260508221153 66 202 0.0 0.0 0.00 0.00 0.00 77 1014.4
20260508215339 66 202 0.0 0.0 0.00 0.00 0.00 76 1014.3
20260508214843 66 202 0.0 0.0 0.00 0.00 0.00 73 1014.2
20260508214328 66 202 0.0 0.0 0.00 0.00 0.00 73 1014.1
20260508213819 66 202 0.0 0.0 0.00 0.00 0.00 75 1014.3
20260508213304 66 202 0.0 0.0 0.00 0.00 0.00 74 1014.4
20260508212747 66 202 0.0 0.0 0.00 0.00 0.00 72 1014.4
20260508212254 67 202 0.0 0.0 0.00 0.00 0.00 72 1014.3
20260508211748 67 202 0.0 0.0 0.00 0.00 0.00 73 1014.2
20260508210559 67 202 0.0 0.0 0.00 0.00 0.00 71 1014.5
20260508210044 67 202 0.0 0.9 0.00 0.00 0.00 71 1014.4
20260508205525 67 202 0.0 0.0 0.00 0.00 0.00 72 1014.4
20260508205008 68 202 0.0 0.0 0.00 0.00 0.00 72 1014.3
20260508204518 68 202 0.0 0.0 0.00 0.00 0.00 73 1014.3
20260508204009 68 202 0.0 0.0 0.00 0.00 0.00 71 1014.5
20260508202903 68 202 0.0 0.0 0.00 0.00 0.00 70 1014.5
20260508202353 69 202 0.0 0.0 0.00 0.00 0.00 71 1014.5
20260508201839 69 203 0.0 0.0 0.00 0.00 0.00 67 1014.6
20260508200042 69 202 0.0 0.0 0.00 0.00 0.00 66 1014.6
20260508195537 69 202 0.0 0.0 0.00 0.00 0.00 67 1014.6
20260508195029 69 202 0.0 0.0 0.00 0.00 0.00 66 1014.5
20260508194514 69 202 0.0 0.0 0.00 0.00 0.00 65 1014.5
20260508194007 69 202 0.0 0.0 0.00 0.00 0.00 66 1014.5
20260508193513 70 202 0.0 0.9 0.00 0.00 0.00 65 1014.7
20260508193015 70 204 0.0 0.0 0.00 0.00 0.00 64 1014.8
20260508192505 71 204 0.0 0.0 0.00 0.00 0.00 62 1015.0
20260508191959 71 204 0.0 0.0 0.00 0.00 0.00 57 1015.1
20260508191452 72 204 0.0 2.6 0.00 0.00 0.00 55 1015.2
20260508190951 72 204 0.0 2.6 0.00 0.00 0.00 47 1015.4
20260508190500 72 204 0.0 2.6 0.00 0.00 0.00 51 1015.4
20260508190010 72 199 0.9 2.6 0.00 0.00 0.00 49 1015.6
20260508185503 72 183 0.0 2.6 0.00 0.00 0.00 50 1015.7
20260508184952 72 201 0.0 4.3 0.00 0.00 0.00 50 1015.5
20260508184437 72 190 0.9 4.3 0.00 0.00 0.00 45 1015.5
20260508183921 73 190 0.9 4.3 0.00 0.00 0.00 51 1015.8
20260508183402 72 218 0.0 4.3 0.00 0.00 0.00 47 1016.0
20260508182910 72 216 0.0 1.7 0.00 0.00 0.00 46 1016.0
20260508182356 72 210 0.0 3.5 0.00 0.00 0.00 45 1015.8
20260508181841 72 210 0.9 3.5 0.00 0.00 0.00 46 1016.0
20260508181338 72 214 0.9 3.5 0.00 0.00 0.00 48 1015.9
20260508180828 72 217 0.0 3.5 0.00 0.00 0.00 50 1016.2
20260508180338 72 147 0.0 0.0 0.00 0.00 0.00 47 1016.4
20260508175838 73 145 0.0 0.0 0.00 0.00 0.00 46 1016.3
20260508175330 73 191 0.0 0.9 0.00 0.00 0.00 46 1016.4
20260508174822 73 190 0.0 0.9 0.00 0.00 0.00 49 1016.3
20260508174332 72 280 0.0 3.5 0.00 0.00 0.00 44 1016.3
20260508173832 73 280 0.0 1.7 0.00 0.00 0.00 49 1016.5
20260508173335 72 280 0.0 1.7 0.00 0.00 0.00 44 1016.6
20260508172819 73 243 0.9 0.9 0.00 0.00 0.00 50 1016.4
20260508171700 72 191 0.0 3.5 0.00 0.00 0.00 49 1016.8
20260508170546 71 219 0.9 3.5 0.00 0.00 0.00 46 1017.0
20260508170053 71 210 0.9 3.5 0.00 0.00 0.00 48 1017.0
20260508164920 70 220 0.9 5.2 0.00 0.00 0.00 53 1017.2
20260508164411 69 297 1.7 5.2 0.00 0.00 0.00 46 1017.2
20260508163854 69 186 1.7 5.2 0.00 0.00 0.00 48 1017.3
20260508163342 69 191 0.9 4.3 0.00 0.00 0.00 48 1017.4
20260508161559 67 198 0.0 2.6 0.00 0.00 0.00 55 1018.0
20260508161054 67 34 0.0 2.6 0.00 0.00 0.00 53 1018.1
20260508160600 67 197 0.0 5.2 0.00 0.00 0.00 55 1018.2
20260508160109 66 277 0.0 5.2 0.00 0.00 0.00 56 1018.3
20260508155618 66 206 0.0 4.3 0.00 0.00 0.00 56 1018.4
20260508155113 66 186 1.7 4.3 0.00 0.00 0.00 56 1018.4
20260508154558 66 212 1.7 6.1 0.00 0.00 0.00 57 1018.4
20260508154101 65 198 1.7 7.8 0.00 0.00 0.00 63 1018.3
20260508153557 65 200 0.9 7.8 0.00 0.00 0.00 62 1018.4
20260508153049 64 216 0.9 7.8 0.00 0.00 0.00 63 1018.6
20260508152555 63 188 0.9 7.8 0.00 0.00 0.00 65 1018.7
20260508150200 61 243 0.0 0.9 0.00 0.00 0.00 72 1018.7
20260508145656 60 359 0.0 2.6 0.00 0.00 0.00 73 1018.8
20260508145148 60 189 0.0 2.6 0.00 0.00 0.00 73 1018.7
20260508144658 59 239 0.0 0.9 0.00 0.00 0.00 87 1018.8
20260508144145 59 239 0.0 1.7 0.00 0.00 0.00 81 1018.8
20260508143631 58 242 0.0 1.7 0.00 0.00 0.00 88 1018.8
20260508143137 58 284 0.0 0.0 0.00 0.00 0.00 82 1018.9
20260508142623 57 280 0.0 0.9 0.00 0.00 0.00 83 1019.0
20260508141437 56 285 0.0 0.0 0.00 0.00 0.00 92 1018.9
20260508140935 56 285 0.0 0.0 0.00 0.00 0.00 92 1018.9
20260508135803 56 285 0.0 0.0 0.00 0.00 0.00 92 1018.6
20260508135255 56 285 0.0 0.0 0.00 0.00 0.00 94 1018.7
20260508134801 55 285 0.0 0.0 0.00 0.00 0.00 94 1018.7
20260508134255 55 285 0.0 0.0 0.00 0.00 0.00 94 1018.8
20260508133801 55 285 0.0 0.0 0.00 0.00 0.00 94 1018.8
20260508132638 54 285 0.0 0.0 0.00 0.00 0.00 95 1018.8
20260508132132 54 285 0.0 0.0 0.00 0.00 0.00 95 1018.9
20260508131624 54 285 0.0 0.0 0.00 0.00 0.00 95 1018.9
20260508130442 53 285 0.0 0.0 0.00 0.00 0.00 95 1019.0
20260508125925 52 285 0.0 0.0 0.00 0.00 0.00 95 1019.0
20260508125408 52 285 0.0 0.0 0.00 0.00 0.00 95 1019.0
20260508124850 52 285 0.0 0.0 0.00 0.00 0.00 95 1018.9
20260508124357 52 285 0.0 0.0 0.00 0.00 0.00 95 1018.9
20260508123857 51 285 0.0 0.0 0.00 0.00 0.00 95 1018.9
20260508122740 51 285 0.0 0.0 0.00 0.00 0.00 95 1018.8
20260508122222 50 285 0.0 0.0 0.00 0.00 0.00 95 1018.7
20260508121707 50 285 0.0 0.0 0.00 0.00 0.00 95 1018.7
20260508120517 50 285 0.0 0.0 0.00 0.00 0.00 95 1018.6
20260508120007 49 285 0.0 0.0 0.00 0.00 0.00 95 1018.5
20260508115453 49 285 0.0 0.0 0.00 0.00 0.00 95 1018.3
20260508114952 49 285 0.0 0.0 0.00 0.00 0.00 95 1018.3
20260508114457 49 285 0.0 0.0 0.00 0.03 0.00 95 1018.1
20260508113944 49 285 0.0 0.0 0.00 0.05 0.00 95 1018.0
20260508113435 49 285 0.0 0.0 0.00 0.08 0.00 95 1017.9
20260508112251 48 285 0.0 0.0 0.00 0.10 0.00 94 1017.6
20260508111738 48 285 0.0 0.0 0.00 0.10 0.00 94 1017.5
20260508111219 48 285 0.0 0.0 0.00 0.10 0.00 94 1017.4
20260508110725 48 285 0.0 0.0 0.00 0.10 0.00 94 1017.3
20260508110212 48 285 0.0 0.0 0.00 0.12 0.00 94 1017.3
20260508105715 48 285 0.0 0.0 0.00 0.13 0.00 94 1017.2
20260508105219 48 285 0.0 0.0 0.00 0.15 0.00 94 1017.1
20260508104701 48 285 0.0 0.0 0.00 0.16 0.00 94 1017.1
20260508104152 48 285 0.0 0.0 0.00 0.18 0.00 94 1017.0
20260508103639 48 285 0.0 0.0 0.00 0.18 0.00 94 1017.0
20260508103147 48 285 0.0 0.0 0.00 0.20 0.00 94 1016.9
20260508102638 48 285 0.0 0.0 0.00 0.20 0.00 94 1016.7
20260508102121 48 285 0.0 0.0 0.00 0.21 0.00 94 1016.7
20260508101624 48 285 0.0 0.0 0.00 0.23 0.00 94 1016.6
20260508101109 48 285 0.0 0.0 0.00 0.26 0.00 93 1016.5
20260508100612 49 285 0.0 0.0 0.00 0.26 0.00 93 1016.4
20260508100103 49 285 0.0 0.0 0.00 0.28 0.00 93 1016.3
20260508094304 49 285 0.0 0.0 0.00 0.33 0.00 94 1016.0
20260508093802 49 285 0.0 0.0 0.00 0.33 0.00 94 1016.0
20260508093300 49 285 0.0 0.0 0.00 0.33 0.00 93 1015.9
20260508092752 49 285 0.0 0.0 0.00 0.35 0.00 93 1016.0
20260508092237 49 285 0.0 0.0 0.00 0.35 0.00 93 1015.9
20260508091720 49 285 0.0 0.0 0.00 0.35 0.00 93 1015.9
20260508090615 50 285 0.0 0.0 0.00 0.35 0.00 93 1015.9
20260508090100 50 285 0.0 0.0 0.00 0.35 0.00 93 1015.9
20260508085550 50 285 0.0 0.0 0.00 0.35 0.00 93 1015.9
20260508085041 50 285 0.0 0.0 0.00 0.35 0.00 93 1015.8
20260508083912 50 285 0.0 0.0 0.00 0.35 0.00 93 1015.8
20260508083355 50 285 0.0 0.0 0.00 0.35 0.00 93 1015.6
20260508082849 50 285 0.0 0.0 0.00 0.35 0.00 93 1015.6
20260508082347 50 285 0.0 0.0 0.00 0.35 0.00 93 1015.8
20260508081831 50 285 0.0 0.0 0.00 0.36 0.00 93 1015.8
20260508081338 50 285 0.0 0.0 0.00 0.38 0.00 93 1015.7
20260508080826 51 285 0.0 0.0 0.00 0.38 0.00 93 1015.8
20260508080323 51 285 0.0 0.0 0.00 0.38 0.00 93 1015.7
20260508075810 51 285 0.0 0.0 0.00 0.38 0.00 93 1015.6
20260508075309 51 285 0.0 0.0 0.00 0.38 0.00 93 1015.7
20260508074804 51 285 0.0 0.0 0.00 0.38 0.00 93 1015.7
20260508074257 51 285 0.0 0.0 0.00 0.38 0.00 93 1015.7
20260508073755 51 285 0.0 0.0 0.00 0.38 0.00 93 1015.7
20260508073303 51 285 0.0 0.0 0.00 0.38 0.00 93 1015.8